Location: Newark
(43.5831°N, 21.3381°E)
Time: 00:40:14
(UTC+00:00)

Envisat - Pass Details

Date: 13 December 2019
Orbit: 764 x 766 km, 98.1° (Epoch: 21 January)

Event Time Altitude Azimuth Distance (km) Brightness Sun altitude
Rises 17:23:36 0° 196° (SSW) 3,219 6.5 -25.4°
Reaches altitude 10° 17:26:13 10° 208° (SSW) 2,298 5.9 -25.9°
Maximum altitude 17:30:29 27° 266° (W) 1,437 5.0 -26.6°
Drops below altitude 10° 17:34:48 10° 324° (NW) 2,312 5.8 -27.4°
Sets 17:37:27 0° 336° (NNW) 3,243 6.5 -27.9°
